• MPC Preparation (Info)

  • MPEC 2013-N41 : 2013 NP11

    The following Minor Planet Electronic Circular may be linked-to from your own Web pages, but must not otherwise be redistributed electronically.

    A form allowing access to any MPEC is at the bottom of this page.


    Read MPEC 2013-N40 Read MPEC 2013-N42


    M.P.E.C. 2013-N41                                Issued 2013 July 11, 20:50 UT
    
         The Minor Planet Electronic Circulars contain information on unusual
             minor planets and routine data on comets.  They are published
       on behalf of Commission 20 of the International Astronomical Union by the
              Minor Planet Center, Smithsonian Astrophysical Observatory,
                              Cambridge, MA 02138, U.S.A.
    
                 Prepared using the Tamkin Foundation Computer Network
    
                                  MPC@CFA.HARVARD.EDU
                URL https://www.minorplanetcenter.net/    ISSN 1523-6714
    
                                       2013 NP11
    
    Observations:
         K13N11P* C2013 07 09.37275 17 58 56.448-22 07 33.04         19.4 gLEN041F51
         K13N11P  C2013 07 09.38263 17 58 54.564-22 06 25.45         19.6 gLEN041F51
         K13N11P  C2013 07 09.39297 17 58 52.611-22 05 14.47         19.0 rLEN041F51
         K13N11P IC2013 07 09.99979 17 57 11.56 -20 55 38.8                qEN041J95
         K13N11P KC2013 07 10.00195 17 57 11.31 -20 55 22.4                qEN041J95
         K13N11P 2C2013 07 10.39297317 56 07.557-20 09 33.84         18.1 RtEN041568
         K13N11P 2C2013 07 10.39422617 56 07.322-20 09 25.03         18.2 RtEN041568
         K13N11P 2C2013 07 10.39549617 56 07.086-20 09 16.09         18.2 RtEN041568
         K13N11P 2C2013 07 10.39679917 56 06.844-20 09 06.92         18.2 RtEN041568
         K13N11P  C2013 07 10.61348 17 55 30.27 -19 42 50.5          18.7 VoEN041E23
         K13N11P  C2013 07 10.63374 17 55 26.53 -19 40 26.5          18.5 VoEN041E23
         K13N11P IC2013 07 10.89638917 54 45.94 -19 09 30.0                qEN041K91
         K13N11P KC2013 07 10.89882917 54 45.50 -19 09 12.8          18.5 VqEN041K91
         K13N11P KC2013 07 10.90134317 54 45.04 -19 08 55.0          18.5 VqEN041K91
         K13N11P KC2013 07 10.90374617 54 44.60 -19 08 38.1          18.7 VqEN041K91
         K13N11P KC2013 07 10.90632717 54 44.13 -19 08 19.3          18.7 VqEN041K91
         K13N11P KC2013 07 10.90781017 54 43.86 -19 08 08.8          18.7 VqEN041K91
         K13N11P IC2013 07 10.99988 17 54 28.68 -18 58 18.6                qEN041J95
         K13N11P KC2013 07 11.00236 17 54 28.20 -18 58 01.4          18.9 RqEN041J95
    
    Observer details:
    568 Mauna Kea.  Observer P. Forshay.  Measurer D. J. Tholen.  3.6-m
        Canada-France-Hawaii Telescope.
    E23 Arcadia.  Observer A. Hidas.  0.35-m Schmidt-Cassegrain + CCD.
    F51 Pan-STARRS 1, Haleakala.  Observers N. Primak, A. Schultz, S. Watters,
        T. Goggia, K. Chambers.  Measurer PS1 Science Consortium.  1.8-m
        Ritchey-Chretien + CCD.
    J95 Great Shefford.  Observer P. Birtwhistle.  0.40-m f/6.0 Schmidt-Cassegrain
        + CCD.
    K91 Sutherland-LCOGT A.  Observer T. Lister.  1.0-m f/8 Ritchey-Chretien + CCD.
    
    Orbital elements:
    2013 NP11                                                Earth MOID = 0.1338 AU
    Epoch 2013 Apr. 18.0 TT = JDT 2456400.5                 MPC
    M 264.06789              (2000.0)            P               Q
    n   0.62691428     Peri.   67.90431     +0.94322996     +0.11758530
    a   1.3520641      Node   284.23211     -0.25465947     +0.85642995
    e   0.2345913      Incl.   18.69109     +0.21322710     +0.50269418
    P   1.57           H   21.5           G   0.15           U   7
    Residuals in seconds of arc
    130709 F51  0.0   0.2-    130710 568  0.0   0.0     130710 K91  0.0   0.1+
    130709 F51  0.1-  0.2-    130710 568  0.0   0.0     130710 K91  0.0   0.5+
    130709 F51  0.0   0.1-    130710 E23  0.1-  0.0     130710 K91  0.0   0.4+
    130709 J95  0.9-  0.1+    130710 E23  1.6-  0.2-    130710 J95  0.3+  0.2+
    130710 J95  1.0+  1.4+    130710 K91  0.0   0.5+    130711 J95  0.4-  0.3-
    130710 568  0.0   0.0     130710 K91  0.1+  0.3+
    130710 568  0.0   0.0     130710 K91  0.0   0.3+
    
    Ephemeris:
    2013 NP11                a,e,i = 1.35, 0.23, 19                  q = 1.0349
    Date    TT    R. A. (2000) Decl.     Delta      r     Elong.  Phase     V
    2013 06 11    19 09 07.8 -51 27 17   0.2991  1.2703   144.3    27.8    20.6
    ...
    2013 06 26    18 37 25.0 -41 46 49   0.2101  1.2172   161.2    15.6    19.4
    ...
    2013 07 04    18 14 23.1 -31 28 47   0.1763  1.1897   168.0    10.2    18.8
    ...
    2013 07 10    17 57 12.4 -20 54 51   0.1602  1.1697   161.5    16.1    18.7
    2013 07 11    17 54 29.6 -18 57 32   0.1584  1.1664   159.5    17.7    18.8
    2013 07 12    17 51 50.3 -16 57 47   0.1569  1.1631   157.5    19.5    18.8
    ...
    2013 07 18    17 37 26.6 -04 34 06   0.1536  1.1441   144.0    31.5    19.1
    ...
    2013 07 26    17 22 57.8 +10 57 36   0.1627  1.1202   126.6    46.7    19.6
    ...
    2013 08 10    17 09 48.8 +31 18 28   0.2046  1.0816   104.0    65.4    20.5
    
    A. U. Tomatic                (C) Copyright 2013 MPC           M.P.E.C. 2013-N41
    

    Read MPEC 2013-N40 Read MPEC 2013-N42


    MPEC number:

    Enter an MPEC number in one of the following forms:

    • 1997-B01 (the full form)
    • J97B01 (the packed version of the full form)
    • B01 (the abbreviated form)